Orbital Elements at Epoch 2459200.5 (2020-Dec-17.0) TDB
Reference: JPL 13 (heliocentric ecliptic J2000)
Element | Value | Uncertainty (1-sigma) | Units |
e | .07364072058669661 | 7.9723e-08 | |
a | 2.970282021491719 | 2.4608e-08 | au |
q | 2.751548313083359 | 2.3316e-07 | au |
i | 2.615236532000253 | 5.2511e-06 | deg |
node | 73.17359877445445 | 0.00027752 | deg |
peri | 163.97447916 | 0.00029205 | deg |
M | 130.5021684098635 | 9.217e-05 | deg |
tp | 2458522.686547728283 (2019-Feb-08.18654773) | 0.0004772 | TDB |
period | 1869.799144267517 5.12 | 2.3236e-05 6.362e-08 | d yr |
n | .1925340489665418 | 2.3926e-09 | deg/d |
Q | 3.189015729900079 | 2.642e-08 | au |
|
| | Orbit Determination Parameters
Additional Information
|